アトラス彗星

C/2023 E1 ( ATLAS )

English version
Home page
Updated on July 27, 2024

---------------------------------------------------------------------

・ プロフィール

発見日 2023年3月1日
発見光度 18.8等
発見者 Asteroid Terrestrial-Impact Last Alert System (ATLAS) search program

・ 写真集

・ 軌道要素

Epoch 2023 Sept. 13.0 TT = JDT 2460200.5
T 2023 July 1.10941 TT                                  Rudenko
q   1.0266368            (2000.0)            P               Q
n   0.01158469     Peri.  105.89823     +0.06333682     +0.98427290
a  19.3440110      Node   164.57384     -0.97143018     +0.02293380
e   0.9469274      Incl.   38.31404     +0.22871784     -0.17515965
P  85.1
>From 3051 observations 2022 Dec. 25-2023 Nov. 15, mean residual 0".6.

・ 星図

・ 光度変化

        m1 = 10.0 + 5 logΔ + 21.0 log r          [ ,0]  (              〜2023年 7月 1日)
        m1 =  9.7 + 5 logΔ + 15.0 log r(t - 20)  [0, ]  (2023年 7月 1日〜              )

---------------------------------------------------------------------

軌道要素はM.P.E.C. 2023-X256に掲載されたものです。
星図はステラナビゲータ Ver.11 (アストロアーツ) で作成したものです。
光度グラフはComet for Windowsで作成したものです。

---------------------------------------------------------------------

Copyright(C) Seiichi Yoshida (comet@aerith.net). All rights reserved.